Location: New York
(40.7127°N, 74.0060°W)
Time: 18:13:01
(UTC-04:00)

UNISAT 6 - Pass Details

Date: 02 May 2024
Orbit: 593 x 667 km, 97.7° (Epoch: 27 May)

Event Time Altitude Azimuth Distance (km) Brightness Sun altitude
Rises 04:45:25 0° 163° (SSE) 2,888 ? -12.2°
Reaches altitude 10° 04:47:36 10° 162° (SSE) 1,975 ? -11.8°
Maximum altitude 04:51:53 79° 77° (ENE) 625 ? -11.1°
Drops below altitude 10° 04:56:08 10° 350° (N) 1,952 ? -10.4°
Sets 04:58:17 0° 350° (N) 2,852 ? -10.1°
